This is the latest recevied weather packets stored in our database for station/object SP1BMW-13. If no packets are shown the sender has not sent any weather packets the latest 10 day(s).
| Time | Temp. | Humidity | Pressure | Rain* | Wind** | Luminosity | Snow |
|---|---|---|---|---|---|---|---|
| 1787881036 | 17.78° C | 61% | 1014.4 hPa | 0 mm | 0.89 m/s, 107° | 0 W/m² | - |
| 1787880976 | 17.78° C | 61% | 1014.5 hPa | 0 mm | 1.34 m/s, 83° | 0 W/m² | - |
| 1787880916 | 17.78° C | 61% | 1014.5 hPa | 0 mm | 0.89 m/s, 69° | 0 W/m² | - |
| 1787880856 | 17.78° C | 61% | 1014.4 hPa | 0 mm | 1.79 m/s, 16° | 0 W/m² | - |
| 1787880796 | 17.78° C | 61% | 1014.6 hPa | 0 mm | 0.45 m/s, 49° | 0 W/m² | - |
| 1787880736 | 17.78° C | 61% | 1014.5 hPa | 0 mm | 0.89 m/s, 77° | 0 W/m² | - |
| 1787880676 | 17.78° C | 61% | 1014.3 hPa | 0 mm | 0.45 m/s, 95° | 0 W/m² | - |
| 1787880616 | 17.78° C | 61% | 1014.5 hPa | 0 mm | 0.45 m/s, 216° | 0 W/m² | - |
| 1787880557 | 17.78° C | 61% | 1014.6 hPa | 0 mm | 0.89 m/s, 21° | 0 W/m² | - |
| 1787880497 | 17.78° C | 61% | 1014.4 hPa | 0 mm | 1.34 m/s, 102° | 0 W/m² | - |
| 1787880437 | 17.78° C | 61% | 1014.6 hPa | 0 mm | 0.89 m/s, 37° | 0 W/m² | - |
| 1787880377 | 17.78° C | 61% | 1014.5 hPa | 0 mm | 1.34 m/s, 94° | 0 W/m² | - |
| 1787880317 | 17.78° C | 61% | 1014.7 hPa | 0 mm | 1.79 m/s, 70° | 0 W/m² | - |
| 1787880257 | 17.78° C | 61% | 1014.6 hPa | 0 mm | 0.89 m/s, 81° | 0 W/m² | - |
| 1787880197 | 17.78° C | 61% | 1014.7 hPa | 0 mm | 0 m/s | 0 W/m² | - |
| 1787880137 | 17.78° C | 61% | 1014.6 hPa | 0 mm | 0.89 m/s, 37° | 0 W/m² | - |
| 1787880077 | 17.78° C | 61% | 1014.6 hPa | 0 mm | 0.89 m/s, 70° | 0 W/m² | - |
| 1787880017 | 17.78° C | 61% | 1014.8 hPa | 0 mm | 0.89 m/s, 99° | 0 W/m² | - |
| 1787879957 | 17.78° C | 61% | 1014.7 hPa | 0 mm | 0.89 m/s, 89° | 0 W/m² | - |
| 1787879897 | 17.78° C | 61% | 1014.9 hPa | 0 mm | 1.79 m/s, 69° | 0 W/m² | - |
| 1787879837 | 17.78° C | 61% | 1014.9 hPa | 0 mm | 0 m/s | 0 W/m² | - |
| 1787879777 | 17.78° C | 61% | 1014.6 hPa | 0 mm | 0.45 m/s, 88° | 0 W/m² | - |
| 1787879716 | 17.78° C | 61% | 1014.8 hPa | 0 mm | 0.89 m/s, 105° | 0 W/m² | - |
| 1787879657 | 17.78° C | 61% | 1014.7 hPa | 0 mm | 0.45 m/s, 121° | 0 W/m² | - |
| 1787879597 | 17.78° C | 61% | 1014.7 hPa | 0 mm | 1.34 m/s, 99° | 0 W/m² | - |
* Rain latest hour (hover to see other rain measurements)
** Current wind speed in m/s (hover to see current wind gust speed)